Location: Rathdrum
(47.8130°N, 116.8960°W)
Time: 23:27:45
(UTC-07:00)

Amateur Radio Satellites - All Passes

Search period start: 26 May 2016 22:57
Search period end: 27 May 2016 22:57
Location: Rathdrum, 47.8130°N, 116.8960°W

Satellite Date Start Highest point End Downlink Frequencies (MHz)
Time Altitude Azimuth
ESTCUBE 1 26 May 23:00:06 23:04:33 62° 72° (ENE) 23:09:03 437.505/2401.250
PHONESAT 2.4 26 May 23:07:20 23:08:55 13° 161° (SSE) 23:10:29 2401.200-2431.200
ISS 26 May 23:13:16 23:16:33 89° 140° (SE) 23:19:49 145.825
CUBEBUG 1 26 May 23:21:08 23:25:33 71° 73° (ENE) 23:30:00 437.445
DX 1 26 May 23:23:28 23:27:48 64° 73° (ENE) 23:32:11 434.975-435.025
ANTELSAT 26 May 23:24:43 23:29:02 88° 104° (ESE) 23:33:23 437.575/2403.000
VELOX 1 26 May 23:25:47 23:30:16 78° 73° (ENE) 23:34:45 145.980
50 SAT 26 May 23:27:38 23:31:16 88° 249° (WSW) 23:34:58 437.505
DANDE 26 May 23:31:52 23:40:24 87° 80° (E) 23:48:19 436.750
HUMSAT D 26 May 23:36:55 23:38:45 13° 271° (W) 23:40:35 437.325/437.525
DUCHIFAT 1 26 May 23:37:46 23:41:03 22° 93° (E) 23:44:20 145.980
CUSAT 1 26 May 23:47:05 23:54:31 46° 271° (W) 00:00:55 437.405
GONETS M04 26 May 23:50:06 23:58:05 37° 293° (WNW) 00:06:06
AIST 2 26 May 23:50:32 23:53:37 20° 246° (WSW) 23:56:41 435.215
SPROUT 26 May 23:52:10 23:56:23 59° 73° (ENE) 00:00:37 437.525
BUGSAT 1 26 May 23:59:48 00:02:37 18° 92° (E) 00:05:23 437.445
SO-50 27 May 00:00:02 00:03:28 19° 112° (ESE) 00:06:54 436.795
AISAT 27 May 00:02:05 00:06:22 45° 261° (W) 00:10:41 437.250
RS-15 27 May 00:11:22 00:22:51 44° 26° (NNE) 00:34:30 29.354- 29.394
POPSAT HIP 1 27 May 00:14:22 00:18:32 57° 100° (E) 00:22:39 437.405
UKube-1 27 May 00:14:31 00:18:42 48° 260° (W) 00:22:56 .
QB50P1 27 May 00:14:51 00:19:01 59° 101° (E) 00:23:09 145.935-145.965
QB50P2 27 May 00:16:50 00:21:02 65° 101° (E) 00:25:13 145.880/145.840
Cosmos 2499 27 May 00:19:12 00:25:48 35° 294° (WNW) 00:32:53 435.465 / 435.565
POLYITAN 1 27 May 00:19:18 00:23:30 67° 102° (ESE) 00:27:39 437.675
TISAT 1 27 May 00:19:44 00:23:35 35° 68° (ENE) 00:27:27 437.305
UNISAT 6 27 May 00:20:37 00:24:14 27° 294° (WNW) 00:27:53 437.425
TIGRISAT 27 May 00:28:35 00:32:02 24° 295° (WNW) 00:35:31 435.000
NANOSAT C BR1 27 May 00:33:45 00:37:58 89° 92° (E) 00:42:10 145.865
ESTCUBE 1 27 May 00:38:56 00:41:46 16° 270° (W) 00:44:39 437.505/2401.250
SWISSCUBE 27 May 00:39:52 00:42:54 17° 58° (ENE) 00:45:58 437.505
PHONESAT 2.4 27 May 00:42:34 00:45:02 21° 178° (S) 00:47:29 2401.200-2431.200
ITUPSAT 1 27 May 00:45:33 00:48:38 17° 58° (ENE) 00:51:43 437.325
ISS 27 May 00:50:05 00:53:13 41° 356° (N) 00:56:20 145.825
CUBEBUG 1 27 May 01:00:01 01:02:20 14° 271° (W) 01:04:40 437.445
DX 1 27 May 01:01:54 01:04:26 15° 270° (W) 01:06:59 434.975-435.025
ANTELSAT 27 May 01:03:25 01:05:08 12° 302° (WNW) 01:06:51 437.575/2403.000
VELOX 1 27 May 01:05:17 01:07:17 13° 272° (W) 01:09:17 145.980
BEESAT 27 May 01:08:33 01:12:30 27° 63° (ENE) 01:16:29 436.000
JAS-2 27 May 01:11:13 01:18:27 45° 95° (E) 01:24:58 435.910
DUCHIFAT 1 27 May 01:13:00 01:16:54 38° 291° (WNW) 01:20:46 145.980
DANDE 27 May 01:15:52 01:22:17 25° 279° (W) 01:28:26 436.750
Oscar 19 27 May 01:21:36 01:25:38 22° 92° (E) 01:29:38 437.125/150
SPROUT 27 May 01:30:08 01:32:43 16° 270° (W) 01:35:19 437.525
BUGSAT 1 27 May 01:34:22 01:38:15 45° 290° (WNW) 01:42:05 437.445
SO-50 27 May 01:38:33 01:43:28 73° 310° (NW) 01:48:23 436.795
Gurwin Techsat 1B 27 May 01:39:02 01:41:56 15° 87° (E) 01:44:50 435.225
POPSAT HIP 1 27 May 01:51:12 01:53:55 17° 299° (WNW) 01:56:37 437.405
QB50P1 27 May 01:51:43 01:54:22 17° 299° (WNW) 01:57:02 145.935-145.965
QB50P2 27 May 01:53:55 01:56:23 15° 300° (WNW) 01:58:50 145.880/145.840
TISAT 1 27 May 01:55:50 01:59:19 25° 266° (W) 02:02:49 437.305
POLYITAN 1 27 May 01:56:25 01:58:49 15° 300° (WNW) 02:01:12 437.675
YUBILEINY 27 May 02:08:11 02:15:45 31° 63° (ENE) 02:23:17 435.215
NANOSAT C BR1 27 May 02:11:33 02:13:03 12° 303° (WNW) 02:14:33 145.865
SWISSCUBE 27 May 02:15:26 02:20:10 73° 256° (WSW) 02:24:58 437.505
KKS-1 27 May 02:17:01 02:19:58 18° 60° (ENE) 02:22:56 437.445
PHONESAT 2.4 27 May 02:19:09 02:21:11 16° 194° (SSW) 02:23:13 2401.200-2431.200
ITUPSAT 1 27 May 02:21:11 02:25:56 72° 257° (WSW) 02:30:44 437.325
RS-15 27 May 02:24:37 02:36:58 89° 233° (SW) 02:49:20 29.354- 29.394
ISS 27 May 02:26:46 02:30:00 56° 15° (NNE) 02:33:14 145.825
MOZHAYETS 4 27 May 02:27:18 02:30:09 17° 59° (ENE) 02:33:00
AO-7 27 May 02:41:01 02:43:49 12° 82° (E) 02:46:37 29.400- 29.500
BEESAT 27 May 02:45:36 02:50:06 42° 261° (W) 02:54:38 436.000
STARS 27 May 02:54:11 02:57:30 21° 62° (ENE) 03:00:48 437.465
JAS-2 27 May 02:56:17 03:03:27 45° 297° (WNW) 03:09:58 435.910
Oscar 19 27 May 03:00:15 03:05:18 55° 290° (WNW) 03:10:18 437.125/150
Cosmos 2491 27 May 03:08:22 03:15:33 29° 80° (E) 03:22:42 435.465 / 435.565
Gurwin Techsat 1B 27 May 03:17:14 03:22:36 86° 284° (WNW) 03:27:56 435.225
SO-50 27 May 03:21:11 03:24:46 20° 331° (NNW) 03:28:21 436.795
Cosmos 2504 27 May 03:35:10 03:42:24 31° 65° (ENE) 03:49:55 435.465 / 435.565
ITAMSAT 1 27 May 03:40:05 03:45:18 64° 102° (ESE) 03:50:29 435.822/435.867
CUBESAT XI-V 27 May 03:51:00 03:53:41 15° 58° (ENE) 03:56:22 437.345
KKS-1 27 May 03:51:39 03:56:05 63° 258° (WSW) 04:00:33 437.445
MOZHAYETS 4 27 May 04:02:16 04:06:48 70° 258° (WSW) 04:11:23
ISS 27 May 04:03:21 04:06:23 37° 215° (SW) 04:09:25 145.825
YUBILEINY 27 May 04:04:39 04:13:20 71° 266° (W) 04:22:02 435.215
STARS 27 May 04:29:17 04:33:34 48° 260° (W) 04:37:51 437.465
AO-7 27 May 04:30:10 04:38:26 59° 103° (ESE) 04:46:39 29.400- 29.500
RS-15 27 May 04:38:10 04:47:56 29° 258° (WSW) 04:57:43 29.354- 29.394
JAS-2 27 May 04:43:42 04:46:30 12° 319° (NW) 04:49:13 435.910
Gurwin Techsat 1B 27 May 04:58:44 05:01:47 16° 305° (NW) 05:04:51 435.225
Cosmos 2491 27 May 05:02:48 05:11:37 72° 282° (WNW) 05:20:28 435.465 / 435.565
SO-50 27 May 05:05:59 05:07:10 11° 356° (N) 05:08:21 436.795
HORYU 2 27 May 05:06:06 05:10:05 32° 96° (E) 05:14:03 437.375
ITAMSAT 1 27 May 05:20:25 05:24:19 22° 301° (WNW) 05:28:13 435.822/435.867
AO-85 27 May 05:25:46 05:29:30 19° 110° (ESE) 05:33:13 145.980
CUBESAT XI-V 27 May 05:25:46 05:30:26 81° 256° (WSW) 05:35:11 437.345
Cosmos 2504 27 May 05:28:10 05:36:26 70° 266° (W) 05:45:09 435.465 / 435.565
NOAA 18 27 May 05:58:35 06:02:34 20° 91° (E) 06:06:32 137.9125
NOAA 15 27 May 06:01:42 06:06:03 25° 93° (E) 06:10:22 137.62
YUBILEINY 27 May 06:03:50 06:08:28 16° 288° (WNW) 06:13:07 435.215
Cubesat XI-IV 27 May 06:04:50 06:08:37 19° 90° (E) 06:12:22 437.490
AO-7 27 May 06:23:21 06:30:56 40° 304° (NW) 06:38:31 29.400- 29.500
STRAND 1 27 May 06:30:57 06:35:49 46° 68° (ENE) 06:40:42 437.568
LilacSat-2 27 May 06:31:26 06:34:39 26° 95° (E) 06:37:50 437.200
HORYU 2 27 May 06:42:43 06:46:36 30° 295° (WNW) 06:50:29 437.375
BRITE-PL 27 May 06:46:12 06:51:18 50° 98° (E) 06:55:59 437.365/2234.400
SO-50 27 May 06:46:58 06:49:44 15° 21° (NNE) 06:52:27 436.795
CUTE-I 27 May 06:50:24 06:55:33 46° 99° (E) 07:00:41 437.470
AO-85 27 May 07:04:00 07:09:29 82° 308° (NW) 07:14:48 145.980
Cosmos 2491 27 May 07:04:28 07:10:18 19° 307° (NW) 07:16:11 435.465 / 435.565
CUBESAT XI-V 27 May 07:08:22 07:08:36 10° 275° (W) 07:08:51 437.345
GOMX 1 27 May 07:13:41 07:18:15 42° 97° (E) 07:22:29 467.674
PRISM 27 May 07:18:29 07:21:51 24° 64° (ENE) 07:25:15 437.425
Cosmos 2504 27 May 07:23:50 07:28:22 16° 286° (WNW) 07:33:01 435.465 / 435.565
NOAA 18 27 May 07:38:17 07:43:43 67° 290° (WNW) 07:49:09 137.9125
CUTE 1.7 + AOD 2 27 May 07:38:17 07:39:08 10° 86° (E) 07:39:59 437.475
NOAA 15 27 May 07:40:58 07:46:07 51° 291° (WNW) 07:51:13 137.62
Cubesat XI-IV 27 May 07:43:51 07:49:12 68° 288° (WNW) 07:54:31 437.490
GONETS M04 27 May 07:58:16 08:06:06 35° 65° (ENE) 08:13:51
AIST 1 27 May 08:01:12 08:05:26 45° 76° (ENE) 08:09:36
DOVE 4 27 May 08:04:53 08:09:21 65° 102° (ESE) 08:13:33 437.250
LilacSat-2 27 May 08:05:42 08:08:56 27° 293° (WNW) 08:12:10 437.200
STRAND 1 27 May 08:10:59 08:15:12 26° 266° (W) 08:19:29 437.568
Cosmos 2499 27 May 08:11:11 08:18:13 28° 62° (ENE) 08:25:28 435.465 / 435.565
HO-68 27 May 08:16:40 08:23:10 35° 96° (E) 08:29:37 435.675
AO-7 27 May 08:18:11 08:21:28 13° 328° (NNW) 08:24:44 29.400- 29.500
BRITE-PL 27 May 08:25:12 08:29:27 25° 299° (WNW) 08:33:25 437.365/2234.400
SO-50 27 May 08:26:50 08:31:26 45° 44° (NE) 08:35:52 436.795
CUTE-I 27 May 08:30:50 08:35:26 30° 297° (WNW) 08:40:01 437.470
PCSat 27 May 08:35:22 08:36:02 10° 101° (E) 08:36:42 145.827
CINEMA 3 27 May 08:38:43 08:42:45 44° 98° (E) 08:46:42 145.822/145.860
CANX-2 27 May 08:43:57 08:48:12 56° 100° (E) 08:52:25 2200.000
AO-85 27 May 08:46:28 08:50:44 23° 329° (NNW) 08:54:51 145.980
SEEDS 27 May 08:47:38 08:51:39 40° 97° (E) 08:55:40 437.485
O/OREOS (USA 219) 27 May 08:50:47 08:53:39 17° 100° (E) 08:56:31 437.305
GOMX 1 27 May 08:52:12 08:56:06 25° 297° (WNW) 08:59:47 467.674
ANTELSAT 27 May 08:52:24 08:54:50 15° 60° (ENE) 08:57:16 437.575/2403.000
PRISM 27 May 08:53:10 08:57:00 36° 262° (W) 09:00:54 437.425
CUTE 1.7 + AOD 2 27 May 09:11:17 09:15:35 86° 284° (WNW) 09:19:53 437.475
AUBIESAT-1 27 May 09:13:59 09:17:20 80° 109° (ESE) 09:20:38 437.475
Oscar 11 27 May 09:14:14 09:17:27 20° 92° (E) 09:20:40 145.826/435.025
M-CUBED/EXP-1 PRIME 27 May 09:20:24 09:23:42 67° 292° (WNW) 09:26:55 437.505
NOAA 18 27 May 09:21:01 09:23:25 13° 309° (NW) 09:25:49 137.9125
Cubesat XI-IV 27 May 09:26:04 09:28:19 13° 308° (NW) 09:30:33 437.490
ZACube-1 27 May 09:27:28 09:30:51 23° 94° (E) 09:34:15 437.345
CUBEBUG 2 27 May 09:30:48 09:34:52 51° 100° (E) 09:38:58 437.445
COMPASS 1 27 May 09:34:23 09:38:37 89° 90° (E) 09:42:51 437.405
AAUSAT CUBESAT 2 27 May 09:37:17 09:41:31 79° 103° (ESE) 09:45:43 437.432
AIST 1 27 May 09:39:38 09:42:41 19° 274° (W) 09:45:43
QB50P2 27 May 09:41:21 09:41:36 10° 56° (NE) 09:41:51 145.880/145.840
POLYITAN 1 27 May 09:43:31 09:44:03 10° 56° (NE) 09:44:35 437.675
DOVE 4 27 May 09:43:49 09:46:31 16° 301° (WNW) 09:49:08 437.250
UNISAT 6 27 May 09:45:40 09:49:49 45° 70° (ENE) 09:53:56 437.425
TIGRISAT 27 May 09:53:17 09:57:29 51° 71° (ENE) 10:01:39 435.000
GONETS M04 27 May 09:54:56 10:03:28 62° 268° (W) 10:11:56
NANOSAT C BR1 27 May 09:55:59 09:57:55 13° 58° (ENE) 09:59:52 145.865
UWE-3 27 May 10:00:07 10:04:18 74° 102° (ESE) 10:08:31 435.000/436.395/437.385
Cosmos 2499 27 May 10:03:44 10:12:17 81° 264° (W) 10:21:09 435.465 / 435.565
HO-68 27 May 10:04:13 10:11:09 54° 295° (WNW) 10:18:05 435.675
FUNcube-1 27 May 10:05:16 10:09:23 53° 100° (E) 10:13:31 145.935
SO-50 27 May 10:07:39 10:11:45 30° 244° (WSW) 10:15:43 436.795
DELFI C3 27 May 10:10:31 10:14:16 35° 97° (E) 10:17:59 145.870
PCSat 27 May 10:13:01 10:18:23 66° 119° (ESE) 10:23:47 145.827
CINEMA 3 27 May 10:16:34 10:19:38 20° 297° (WNW) 10:22:40 145.822/145.860
CANX-2 27 May 10:20:48 10:23:40 18° 298° (WNW) 10:26:32 2200.000
SEEDS 27 May 10:23:47 10:27:09 23° 295° (WNW) 10:30:32 437.485
ANTELSAT 27 May 10:26:43 10:31:03 70° 257° (WSW) 10:35:22 437.575/2403.000
O/OREOS (USA 219) 27 May 10:28:02 10:32:34 63° 299° (WNW) 10:37:05 437.305
AO-85 27 May 10:31:12 10:33:05 12° 352° (N) 10:34:56 145.980
DUCHIFAT 1 27 May 10:32:50 10:36:21 26° 66° (ENE) 10:39:53 145.980
BEESAT 3 27 May 10:43:37 10:44:13 10° 109° (ESE) 10:44:49 437.485
CUTE 1.7 + AOD 2 27 May 10:49:19 10:50:45 11° 303° (WNW) 10:52:11 437.475
Oscar 11 27 May 10:49:40 10:53:50 46° 289° (WNW) 10:57:59 145.826/435.025
ESTCUBE 1 27 May 10:52:21 10:52:47 10° 86° (E) 10:53:12 437.505/2401.250
BUGSAT 1 27 May 10:52:40 10:55:52 22° 64° (ENE) 10:59:05 437.445
ZACube-1 27 May 11:03:25 11:07:15 36° 291° (WNW) 11:11:08 437.345
DANDE 27 May 11:04:38 11:07:50 15° 73° (ENE) 11:11:23 436.750
CUBEBUG 2 27 May 11:08:21 11:11:10 18° 298° (WNW) 11:14:00 437.445
CUBEBUG 1 27 May 11:09:37 11:09:57 10° 86° (E) 11:10:17 437.445
POPSAT HIP 1 27 May 11:09:49 11:14:01 67° 73° (ENE) 11:18:14 437.405
CUSAT 1 27 May 11:10:04 11:15:56 35° 86° (E) 11:22:46 437.405
QB50P1 27 May 11:10:14 11:14:27 68° 73° (ENE) 11:18:40 145.935-145.965
COMPASS 1 27 May 11:12:00 11:13:32 12° 302° (WNW) 11:15:05 437.405
QB50P2 27 May 11:12:25 11:16:39 76° 76° (ENE) 11:20:53 145.880/145.840
HUMSAT D 27 May 11:13:54 11:18:04 79° 103° (ESE) 11:22:16 437.325/437.525
AAUSAT CUBESAT 2 27 May 11:14:27 11:16:26 13° 301° (WNW) 11:18:24 437.432
VELOX 1 27 May 11:14:45 11:16:13 11° 87° (E) 11:17:40 145.980
POLYITAN 1 27 May 11:14:53 11:19:06 77° 76° (ENE) 11:23:21 437.675
UNISAT 6 27 May 11:23:34 11:26:47 20° 268° (W) 11:29:58 437.425
JAS-2 27 May 11:25:57 11:32:31 34° 58° (ENE) 11:39:19 435.910
NANOSAT C BR1 27 May 11:28:50 11:33:04 81° 257° (WSW) 11:37:19 145.865
TIGRISAT 27 May 11:31:32 11:34:29 18° 269° (W) 11:37:26 435.000
UWE-3 27 May 11:38:12 11:40:15 13° 300° (WNW) 11:42:17 435.000/436.395/437.385
FUNcube-1 27 May 11:42:30 11:45:17 18° 298° (WNW) 11:48:05 145.935
BEESAT 2 27 May 11:42:52 11:46:08 25° 116° (ESE) 11:49:25 435.950
DELFI C3 27 May 11:45:44 11:48:58 23° 295° (WNW) 11:52:12 145.870
AISAT 27 May 11:49:00 11:52:45 26° 94° (E) 11:56:28 437.250
HO-68 27 May 11:53:54 11:57:23 14° 317° (NW) 12:00:52 435.675
GONETS M04 27 May 11:54:55 11:58:21 13° 291° (WNW) 12:01:46
PCSat 27 May 11:57:34 12:02:14 28° 320° (NW) 12:06:55 145.827
Cosmos 2499 27 May 11:58:34 12:04:09 20° 284° (WNW) 12:09:53 435.465 / 435.565
UKube-1 27 May 11:58:37 12:01:59 21° 93° (E) 12:05:18 .
DUCHIFAT 1 27 May 12:08:07 12:11:57 33° 263° (W) 12:15:48 145.980
O/OREOS (USA 219) 27 May 12:11:17 12:12:56 12° 320° (NW) 12:14:35 437.305
AO-85 27 May 12:13:05 12:15:46 14° 17° (NNE) 12:18:20 145.980
BEESAT 3 27 May 12:17:18 12:21:14 88° 128° (SE) 12:25:13 437.485
ESTCUBE 1 27 May 12:25:43 12:30:18 84° 102° (ESE) 12:34:52 437.505/2401.250
BUGSAT 1 27 May 12:27:01 12:31:01 42° 261° (W) 12:35:00 437.445
50 SAT 27 May 12:27:12 12:30:56 73° 103° (ESE) 12:34:40 437.505
Oscar 19 27 May 12:41:24 12:46:21 46° 68° (ENE) 12:51:19 437.125/150
CUBEBUG 1 27 May 12:42:30 12:46:55 89° 103° (ESE) 12:51:17 437.445
DANDE 27 May 12:43:22 12:49:01 77° 98° (E) 12:56:27 436.750
DX 1 27 May 12:44:15 12:48:39 75° 105° (ESE) 12:52:58 434.975-435.025
POPSAT HIP 1 27 May 12:48:08 12:50:16 14° 271° (W) 12:52:24 437.405
QB50P1 27 May 12:48:39 12:50:42 13° 271° (W) 12:52:45 145.935-145.965
VELOX 1 27 May 12:48:51 12:53:19 84° 285° (WNW) 12:57:44 145.980
CUSAT 1 27 May 12:51:13 12:57:42 55° 289° (WNW) 13:05:26 437.405
HUMSAT D 27 May 12:51:16 12:53:09 13° 301° (WNW) 12:55:00 437.325/437.525
QB50P2 27 May 12:51:22 12:52:59 12° 272° (W) 12:54:37 145.880/145.840
POLYITAN 1 27 May 12:53:58 12:55:28 12° 272° (W) 12:56:57 437.675
Gurwin Techsat 1B 27 May 13:02:46 13:07:28 33° 64° (ENE) 13:12:11 435.225
JAS-2 27 May 13:09:35 13:16:58 67° 259° (W) 13:24:51 435.910
SPROUT 27 May 13:10:28 13:14:45 72° 103° (ESE) 13:18:59 437.525
Cosmos 2491 27 May 13:13:19 13:18:59 18° 52° (NE) 13:24:37 435.465 / 435.565
BEESAT 2 27 May 13:20:00 13:23:48 42° 315° (NW) 13:27:38 435.950
ITAMSAT 1 27 May 13:23:47 13:27:42 22° 59° (ENE) 13:31:40 435.822/435.867
AISAT 27 May 13:25:15 13:29:19 36° 292° (WNW) 13:33:20 437.250
UKube-1 27 May 13:34:07 13:38:13 43° 291° (WNW) 13:42:18 .
TISAT 1 27 May 13:35:30 13:39:25 38° 98° (E) 13:43:18 437.305
AO-7 27 May 13:42:16 13:49:03 29° 50° (NE) 13:55:52 29.400- 29.500
PCSat 27 May 13:45:52 13:47:34 11° 345° (NNW) 13:49:16 145.827
AIST 2 27 May 13:50:13 13:53:58 34° 118° (ESE) 13:57:44 435.215
AO-85 27 May 13:53:04 13:57:39 39° 41° (NE) 14:01:51 145.980
BEESAT 3 27 May 13:56:47 13:59:29 17° 327° (NNW) 14:02:13 437.485
50 SAT 27 May 14:02:52 14:04:09 11° 300° (WNW) 14:05:25 437.505
ESTCUBE 1 27 May 14:04:07 14:06:29 14° 303° (WNW) 14:08:51 437.505/2401.250
SWISSCUBE 27 May 14:12:40 14:16:27 22° 93° (E) 14:20:12 437.505
ITUPSAT 1 27 May 14:18:44 14:22:32 23° 93° (E) 14:26:19 437.325
CUBEBUG 1 27 May 14:20:38 14:22:33 13° 303° (WNW) 14:24:26 437.445
Oscar 19 27 May 14:21:29 14:25:52 27° 266° (W) 14:30:17 437.125/150
DX 1 27 May 14:21:50 14:24:17 15° 302° (WNW) 14:26:41 434.975-435.025
VELOX 1 27 May 14:27:23 14:29:04 12° 304° (NW) 14:30:43 145.980
DANDE 27 May 14:28:03 14:32:59 24° 304° (NW) 14:38:51 436.750
CUSAT 1 27 May 14:38:01 14:41:54 15° 313° (NW) 14:46:02 437.405
BEESAT 27 May 14:41:58 14:46:25 37° 97° (E) 14:50:51 436.000
Gurwin Techsat 1B 27 May 14:42:22 14:47:20 40° 263° (W) 14:52:21 435.225
SPROUT 27 May 14:47:52 14:50:10 14° 301° (WNW) 14:52:28 437.525
JAS-2 27 May 14:59:32 15:03:28 15° 280° (W) 15:07:32 435.910
BEESAT 2 27 May 15:01:21 15:02:41 11° 337° (NNW) 15:04:01 435.950
ITAMSAT 1 27 May 15:01:40 15:06:46 61° 258° (WSW) 15:11:56 435.822/435.867
Cosmos 2491 27 May 15:08:57 15:17:45 70° 77° (ENE) 15:26:26 435.465 / 435.565
TISAT 1 27 May 15:11:33 15:14:54 23° 296° (WNW) 15:18:12 437.305
YUBILEINY 27 May 15:14:44 15:21:52 30° 81° (E) 15:29:00 435.215
AIST 2 27 May 15:28:41 15:32:28 33° 318° (NW) 15:36:16 435.215
PCSat 27 May 15:32:19 15:33:39 11° 12° (NNE) 15:34:59 145.827
AO-7 27 May 15:32:43 15:41:02 83° 251° (WSW) 15:49:26 29.400- 29.500
AO-85 27 May 15:33:49 15:38:05 35° 243° (WSW) 15:42:00 145.980
KKS-1 27 May 15:39:54 15:43:06 19° 92° (E) 15:46:18 437.445
SWISSCUBE 27 May 15:49:52 15:54:30 49° 291° (WNW) 15:59:07 437.505
NOAA 15 27 May 15:50:24 15:51:19 10° 49° (NE) 15:52:14 137.62
NOAA 18 27 May 15:53:00 15:53:39 10° 48° (NE) 15:54:19 137.9125
MOZHAYETS 4 27 May 15:54:19 15:57:55 22° 92° (E) 16:01:31
ITUPSAT 1 27 May 15:55:59 16:00:37 48° 291° (WNW) 16:05:14 437.325
HORYU 2 27 May 16:07:11 16:11:23 45° 69° (ENE) 16:15:37 437.375
STARS 27 May 16:15:35 16:19:05 23° 94° (E) 16:22:33 437.465
BEESAT 27 May 16:19:57 16:24:07 30° 296° (WNW) 16:28:16 436.000
Cosmos 2504 27 May 16:20:56 16:25:41 19° 76° (ENE) 16:30:35 435.465 / 435.565
BRITE-PL 27 May 16:23:42 16:27:00 16° 56° (NE) 16:30:17 437.365/2234.400
CUTE-I 27 May 16:38:09 16:41:37 18° 56° (ENE) 16:45:06 437.470
GOMX 1 27 May 16:49:39 16:52:01 13° 55° (NE) 16:54:21 467.674
RS-15 27 May 16:52:28 17:02:46 42° 109° (ESE) 17:13:34 29.354- 29.394
Cosmos 2491 27 May 17:06:41 17:13:50 30° 279° (W) 17:20:58 435.465 / 435.565
HO-68 27 May 17:09:10 17:09:39 10° 37° (NE) 17:10:08 435.675
YUBILEINY 27 May 17:09:17 17:17:57 70° 283° (WNW) 17:26:40 435.215
AIST 2 27 May 17:11:19 17:12:11 11° 340° (NNW) 17:13:03 435.215
PCSat 27 May 17:14:34 17:19:05 26° 38° (NE) 17:23:34 145.827
KKS-1 27 May 17:15:40 17:19:58 50° 290° (WNW) 17:24:14 437.445
LilacSat-2 27 May 17:16:59 17:19:57 22° 66° (ENE) 17:22:55 437.200
O/OREOS (USA 219) 27 May 17:18:23 17:19:26 11° 39° (NE) 17:20:30 437.305
CUBESAT XI-V 27 May 17:19:35 17:23:07 21° 91° (E) 17:26:38 437.345
NOAA 15 27 May 17:24:49 17:29:59 55° 69° (ENE) 17:35:12 137.62
NOAA 18 27 May 17:27:52 17:33:09 52° 68° (ENE) 17:38:27 137.9125
AO-7 27 May 17:29:28 17:35:04 19° 272° (W) 17:40:43 29.400- 29.500
Cubesat XI-IV 27 May 17:29:49 17:34:49 43° 67° (ENE) 17:39:50 437.490
MOZHAYETS 4 27 May 17:30:53 17:35:19 47° 290° (WNW) 17:39:45
DOVE 4 27 May 17:37:41 17:40:43 16° 59° (ENE) 17:43:40 437.250
HORYU 2 27 May 17:44:49 17:48:10 21° 267° (W) 17:51:33 437.375
STARS 27 May 17:51:30 17:55:37 40° 291° (WNW) 17:59:42 437.465
BRITE-PL 27 May 17:58:56 18:04:36 79° 74° (ENE) 18:10:18 437.365/2234.400
Cosmos 2504 27 May 18:10:35 18:17:51 89° 279° (W) 18:25:37 435.465 / 435.565
CUTE-I 27 May 18:15:43 18:21:02 82° 255° (WSW) 18:26:24 437.470
BEESAT 2 27 May 18:20:30 18:22:11 12° 25° (NNE) 18:23:51 435.950
GOMX 1 27 May 18:23:45 18:29:12 69° 73° (ENE) 18:34:31 467.674
AUBIESAT-1 27 May 18:29:42 18:32:40 20° 59° (ENE) 18:35:29 437.475
CUTE 1.7 + AOD 2 27 May 18:34:01 18:35:55 13° 59° (ENE) 18:37:50 437.475
M-CUBED/EXP-1 PRIME 27 May 18:35:51 18:39:20 28° 62° (ENE) 18:42:37 437.505
STRAND 1 27 May 18:40:01 18:41:51 12° 86° (E) 18:43:41 437.568
HO-68 27 May 18:48:59 18:55:27 39° 60° (ENE) 19:01:55 435.675
LilacSat-2 27 May 18:50:39 18:54:07 33° 263° (W) 18:57:35 437.200
BEESAT 3 27 May 18:54:20 18:57:38 24° 38° (NE) 19:00:55 437.485
O/OREOS (USA 219) 27 May 18:55:27 18:59:53 57° 61° (ENE) 19:04:17 437.305
COMPASS 1 27 May 18:55:55 18:57:20 12° 58° (ENE) 18:58:47 437.405
CUBESAT XI-V 27 May 18:56:13 19:00:49 52° 289° (WNW) 19:05:22 437.345
PCSat 27 May 18:57:37 19:03:04 76° 239° (WSW) 19:08:28 145.827
AAUSAT CUBESAT 2 27 May 18:59:34 18:59:53 10° 57° (ENE) 19:00:11 437.432
RS-15 27 May 19:03:05 19:14:34 71° 315° (NW) 19:26:44 29.354- 29.394
NOAA 15 27 May 19:05:54 19:10:06 23° 268° (W) 19:14:20 137.62
NOAA 18 27 May 19:09:36 19:14:06 26° 266° (W) 19:18:36 137.9125
Cubesat XI-IV 27 May 19:10:24 19:15:02 30° 265° (W) 19:19:41 437.490
YUBILEINY 27 May 19:11:10 19:16:40 18° 308° (NW) 19:22:13 435.215
DOVE 4 27 May 19:12:34 19:17:48 87° 254° (WSW) 19:22:50 437.250
UWE-3 27 May 19:27:13 19:28:38 12° 58° (ENE) 19:30:03 435.000/436.395/437.385
CANX-2 27 May 19:39:46 19:43:55 60° 73° (ENE) 19:48:06 2200.000
BRITE-PL 27 May 19:39:51 19:43:40 18° 273° (W) 19:47:31 437.365/2234.400
SEEDS 27 May 19:42:28 19:46:25 42° 70° (ENE) 19:50:23 437.485
CINEMA 3 27 May 19:43:01 19:47:40 64° 74° (ENE) 19:52:09 145.822/145.860
BEESAT 2 27 May 19:57:06 20:00:59 48° 47° (NE) 20:04:51 435.950
CUTE-I 27 May 19:59:52 20:01:56 12° 274° (W) 20:04:01 437.470
AUBIESAT-1 27 May 20:03:06 20:06:59 42° 255° (WSW) 20:10:37 437.475
GOMX 1 27 May 20:03:47 20:07:43 20° 271° (W) 20:11:35 467.674
CUTE 1.7 + AOD 2 27 May 20:06:57 20:11:09 81° 255° (WSW) 20:15:25 437.475
Cosmos 2504 27 May 20:07:16 20:12:32 21° 303° (WNW) 20:18:03 435.465 / 435.565
M-CUBED/EXP-1 PRIME 27 May 20:10:11 20:13:52 30° 257° (WSW) 20:17:18 437.505
Oscar 11 27 May 20:12:15 20:15:42 24° 64° (ENE) 20:19:11 145.826/435.025
STRAND 1 27 May 20:16:39 20:21:50 82° 105° (ESE) 20:27:00 437.568
ZACube-1 27 May 20:26:33 20:30:10 28° 67° (ENE) 20:33:46 437.345
COMPASS 1 27 May 20:28:06 20:32:15 89° 257° (WSW) 20:36:28 437.405
AIST 2 27 May 20:30:26 20:32:58 16° 29° (NNE) 20:35:32 435.215
AAUSAT CUBESAT 2 27 May 20:30:30 20:34:38 79° 74° (ENE) 20:38:48 437.432
PRISM 27 May 20:31:26 20:34:49 23° 94° (E) 20:38:08 437.425
BEESAT 3 27 May 20:31:43 20:35:34 50° 238° (WSW) 20:39:23 437.485
CUBEBUG 2 27 May 20:31:55 20:36:14 66° 73° (ENE) 20:40:27 437.445
AIST 1 27 May 20:34:34 20:38:02 23° 87° (E) 20:41:32
O/OREOS (USA 219) 27 May 20:35:52 20:38:51 18° 259° (W) 20:41:49 437.305
HO-68 27 May 20:36:05 20:43:00 51° 260° (W) 20:49:58 435.675
HUMSAT D 27 May 20:36:51 20:37:24 10° 57° (ENE) 20:37:57 437.325/437.525
PCSat 27 May 20:43:23 20:45:31 12° 258° (WSW) 20:47:40 145.827
ISS 27 May 20:47:25 20:47:58 10° 133° (SE) 20:48:31 145.825
DOVE 4 27 May 20:53:53 20:56:08 13° 273° (W) 20:58:21 437.250
Cosmos 2499 27 May 20:56:04 21:00:01 15° 73° (ENE) 21:04:04 435.465 / 435.565
DELFI C3 27 May 20:59:43 21:03:18 33° 68° (ENE) 21:06:54 145.870
UWE-3 27 May 21:00:11 21:04:29 90° 42° (NE) 21:08:42 435.000/436.395/437.385
FUNcube-1 27 May 21:03:54 21:08:04 63° 74° (ENE) 21:12:12 145.935
GONETS M04 27 May 21:04:21 21:11:58 35° 83° (E) 21:19:33
CANX-2 27 May 21:17:49 21:20:12 15° 271° (W) 21:22:35 2200.000
RS-15 27 May 21:18:50 21:29:35 38° 345° (NNW) 21:40:46 29.354- 29.394
SEEDS 27 May 21:19:11 21:22:19 20° 268° (W) 21:25:29 437.485
CINEMA 3 27 May 21:22:16 21:25:12 16° 270° (W) 21:28:03 145.822/145.860
BEESAT 2 27 May 21:35:31 21:38:34 21° 245° (WSW) 21:41:36 435.950
DANDE 27 May 21:35:57 21:42:24 24° 56° (NE) 21:48:38 436.750
CUSAT 1 27 May 21:40:47 21:48:00 36° 64° (ENE) 21:54:17 437.405
Oscar 11 27 May 21:47:38 21:51:39 39° 262° (W) 21:55:42 145.826/435.025
ESTCUBE 1 27 May 21:53:49 21:56:33 16° 59° (ENE) 21:59:18 437.505/2401.250
STRAND 1 27 May 21:57:07 22:00:23 17° 303° (WNW) 22:03:40 437.568
ZACube-1 27 May 22:02:41 22:06:26 30° 264° (W) 22:10:09 437.345
PRISM 27 May 22:06:22 22:10:14 37° 292° (WNW) 22:14:05 437.425
CUBEBUG 1 27 May 22:07:32 22:10:04 15° 59° (ENE) 22:12:36 437.445
AIST 2 27 May 22:08:04 22:12:14 69° 50° (NE) 22:16:21 435.215
HUMSAT D 27 May 22:08:15 22:12:20 84° 76° (ENE) 22:16:26 437.325/437.525
DX 1 27 May 22:09:22 22:11:32 14° 57° (ENE) 22:13:42 434.975-435.025
AAUSAT CUBESAT 2 27 May 22:09:36 22:10:41 11° 273° (W) 22:11:47 437.432
CUBEBUG 2 27 May 22:11:01 22:13:17 14° 271° (W) 22:15:33 437.445
AIST 1 27 May 22:11:19 22:15:26 38° 286° (WNW) 22:19:35
VELOX 1 27 May 22:14:39 22:17:36 18° 60° (ENE) 22:20:33 145.980
ANTELSAT 27 May 22:15:36 22:18:35 18° 91° (E) 22:21:35 437.575/2403.000
ISS 27 May 22:20:37 22:23:49 57° 150° (SSE) 22:27:02 145.825
SPROUT 27 May 22:34:43 22:36:02 11° 57° (ENE) 22:37:22 437.525
DELFI C3 27 May 22:34:59 22:38:13 24° 266° (W) 22:41:29 145.870
FUNcube-1 27 May 22:42:35 22:44:45 14° 271° (W) 22:46:53 145.935
AISAT 27 May 22:49:21 22:53:27 36° 67° (ENE) 22:57:34 437.250
